Content
SEND FEEDBACK

Daily
Averages
Monthly
Summary
Honduras

TEGUCIGALPA, HONDURAS


Home > Central America > Honduras
Elevation: 3260 feet     Latitude: 14 03N     Longitude: 087 13W

WEATHER
 
SELECT A DAY
Number of Records: 57,480;   Date Range: 7/9/96 - 10/24/14
 
SHARE

PRINT THIS DATA

[ ← Previous Day ]
WEATHER ALMANAC - FEBRUARY 17, 2013
[ Next Day → ]
[ °C ]   °F
Weather ElementAverageHighLow
Temperature62.2 °F68 °F (9:00 am)57.2 °F (10:00 pm)
Dewpoint58.9 °F62.6 °F (12:00 am)55.4 °F (10:00 pm)
Humidity88.6 %100 % (12:00 am)69 % (9:00 am)
Barometer30.14 in30.21 in (9:00 pm)30.01 in (3:00 pm)
Wind Speed12 mph19.6 mph (11:00 am)
Weather ElementAverage
Visibility4.9 mi
Wind DirectionSE (139 °)

Weather ElementTotal
Precipitation---
Heating Degree Days2.4 (Base 65)
Growing Degree Days12.6 (Base 50)
Averaged from 31 records on February 17, 2013
WEATHER CONDITIONS BREAKOUT
WIND DIRECTION BREAKOUT
WEATHER BY HOUR - FEBRUARY 17, 2013
[ °C ]   °F
Local TimeTemperatureDewpointHumidityBarometerVisibilityWind DirectionWind SpeedGust SpeedPrecipitationEventsConditions
12:00 AM62.6 °F62.6 °F100 %30.18 in4.3 miNNE (20°)9.2 mphMostly Cloudy
1:00 AM62.6 °F59.0 °F88 %30.15 in6.2 miNNE (30°)10.4 mphMostly Cloudy
2:00 AM60.8 °F57.2 °F88 %30.12 in6.2 miNNE (30°)5.8 mphScattered Clouds
3:00 AM60.8 °F57.2 °F88 %30.12 in6.2 miENE (60°)4.6 mphMostly Cloudy
4:00 AM60.8 °F57.2 °F88 %30.12 inNorthMostly Cloudy
5:00 AM60.8 °F59.0 °F94 %30.12 in3.7 miNorth (10°)9.2 mphLight Drizzle
6:00 AM62.0 °F59.0 °F85 %30.04 in6.0 miNE (40°)4.6 mphRainLight Drizzle
6:00 AM60.8 °F59.0 °F94 %30.15 in5.6 miNE (40°)4.6 mphMostly Cloudy
7:00 AM62.6 °F59.0 °F88 %30.18 in6.2 miNorth (360°)11.5 mphMostly Cloudy
8:00 AM62.6 °F59.0 °F88 %30.18 in6.2 miNorth (10°)11.5 mphMostly Cloudy
9:00 AM68.0 °F60.0 °F69 %30.04 in6.0 miNorth13.8 mphHaze
9:00 AM68.0 °F60.8 °F78 %30.18 in6.2 miNorth (360°)13.8 mphMostly Cloudy
10:00 AM66.2 °F59.0 °F78 %30.18 in6.2 miNNE (20°)18.4 mphMostly Cloudy
11:00 AM66.2 °F59.0 °F78 %30.18 in6.2 miNorth (360°)19.6 mphMostly Cloudy
11:37 AM64.4 °F59.0 °F83 %30.18 in3.7 miNorth (10°)15.0 mphMostly Cloudy
12:00 PM64.4 °F60.8 °F88 %30.18 in3.1 miNorth (10°)15.0 mphLight Drizzle
12:00 PM64.0 °F60.0 °F82 %30.05 in3.0 miNorth (10°)15.0 mphRainLight Drizzle
1:00 PM62.6 °F60.8 °F94 %30.15 in2.5 miNorth (10°)17.3 mphLight Drizzle
2:00 PM64.4 °F60.8 °F88 %30.15 in3.7 miNorth (360°)13.8 mphLight Drizzle
3:00 PM62.0 °F60.0 °F89 %30.01 in5.0 miNNE (20°)11.5 mphRainLight Drizzle
3:00 PM62.6 °F59.0 °F88 %30.12 in5.0 miNNE (20°)11.5 mphMostly Cloudy
4:00 PM66.2 °F60.8 °F83 %30.12 in6.2 miNorth (360°)11.5 mphMostly Cloudy
5:00 PM62.6 °F59.0 °F88 %30.12 in3.7 miNorth (360°)11.5 mphLight Drizzle
6:00 PM60.8 °F59.0 °F94 %30.15 in4.3 miNorth (360°)11.5 mphMostly Cloudy
6:00 PM60.0 °F58.0 °F93 %30.04 in4.0 miNorth11.5 mphRainLight Drizzle
7:00 PM59.0 °F59.0 °F100 %30.15 in5.0 miNorth (10°)11.5 mphMostly Cloudy
8:00 PM59.0 °F57.2 °F94 %30.18 in5.0 miNorth (360°)11.5 mphMostly Cloudy
9:00 PM58.0 °F58.0 °F98 %30.12 in4.0 miNorth15.0 mphRainLight Drizzle
9:00 PM59.0 °F57.2 °F94 %30.21 in3.7 miNorth (360°)15.0 mphLight Drizzle
10:00 PM57.2 °F55.4 °F94 %30.21 in4.3 miNorth (360°)12.7 mphMostly Cloudy
11:00 PM57.2 °F55.4 °F94 %30.21 in5.0 miNorth (360°)12.7 mphMostly Cloudy
Hourly data recorded from MHTG, located miles away from Tegucigalpa, Honduras







STORIES FROM OUR PARTNERS